Regional Weather Roundup
Issued by NWS

Home | Current Version | Previous Version | Graphics & Text | Print | Product List | Glossary On
Versions: 1 2 3 4 5 6 7 8 9 10 11 12 13 14 15 16 17 18 19 20 21 22 23 24 25 26 27 28 29 30 31 32 33 34 35 36 37 38 39 40 41 42 43 44 45 46 47 48 49 50
000
ASUS43 KIND 040109
RWRIN

WEATHER ROUNDUP FOR INDIANA
NATIONAL WEATHER SERVICE INDIANAPOLIS IN
900 PM EDT SUN MAY 03 2015

NOTE: "FAIR" INDICATES FEW OR NO CLOUDS BELOW 12,000 FEET WITH NO
SIGNIFICANT WEATHER AND/OR OBSTRUCTIONS TO VISIBILITY.

* - STATION DOES NOT REPORT WEATHER SUCH AS PRECIPITATION OR FOG.

+ - STATION NOT QUALITY CONTROLLED BY THE NATIONAL WEATHER SERVICE.
    USE DATA WITH CAUTION...ESPECIALLY DEWPOINT AND RELATIVE
    HUMIDITY OBSERVATIONS.

INZ001>003-010>013-019-020-040200-
NORTHWEST INDIANA

CITY           SKY/WX    TMP DP  RH WIND       PRES   REMARKS
GARY /AIRPORT/ CLOUDY    75 N/A N/A S9        29.95R
KNOX *+        CLOUDY    72  18  13 S9        29.97S
LA PORTE +     CLOUDY    75  45  34 S6        29.98R
MICHIGAN CITY+ CLOUDY    73  34  23 S8G16     29.97R
MONTICELLO +   CLOUDY    71  47  42 S6        29.99R
VALPARAISO     CLOUDY    73  43  33 S7        29.97R

$$

LMZ046-743>745-040200-
SOUTHERN LAKE MICHIGAN

STATION/POSITION TIME  TEMP    WIND        PRES    WAVE
                       AIR SEA DIR/SP/G            HT
                 (UTC) (F)     (DEG/KT/KT) (MB)    (FT)
BURNS HARBOR     0100   75     180/  9/ 16 1014.6S
MICHIGAN CITY    0100   76     170/ 13/ 17   N/A
5NW MICH CITY    0100   62 51  220/  6/  8   N/A     1

$$

INZ004-005-014>016-021>024-040200-
NORTH CENTRAL INDIANA

CITY           SKY/WX    TMP DP  RH WIND       PRES   REMARKS
GOSHEN         CLOUDY    71  47  42 S9        29.99S
LOGANSPORT +   MOCLDY    68  43  40 S7        30.02R
PERU/GRISSOM   MOCLDY    68  48  47 S7        30.01R
ROCHESTER +    CLOUDY    73  46  38 S6        30.01R
SOUTH BEND     CLOUDY    74  44  34 S9        29.98R
WARSAW +       CLOUDY    72  46  40 CALM      30.01R

$$

INZ006>009-017-018-025>027-040200-
NORTHEAST INDIANA

CITY           SKY/WX    TMP DP  RH WIND       PRES   REMARKS
ANGOLA *+      PTCLDY    70  48  46 S6        30.01S
AUBURN +       PTCLDY    66  46  48 CALM      30.03S
FORT WAYNE     MOCLDY    67  50  54 S8        30.03S
HUNTINGTON +   MOCLDY    70  47  43 S3        30.02R

$$

INZ028-029-035-036-043>045-051>053-040200-
WEST CENTRAL INDIANA

CITY           SKY/WX    TMP DP  RH WIND       PRES   REMARKS
CRAWFORDSVL +  CLOUDY    67  40  36 S8        30.02R
GREENCASTLE +  MOCLDY    72  37  28 S6        30.03R
LAFAYETTE      CLOUDY    71  45  39 S6        29.99R
TERRE HAUTE    PTCLDY    72  46  39 S9        30.01R

$$

INZ030>032-037>040-046>048-054>057-064-065-040200-
CENTRAL INDIANA

CITY           SKY/WX    TMP DP  RH WIND       PRES   REMARKS
CP ATTERBURY + MOCLDY    70  43  37 S3        30.05S
FISHERS *+     PTCLDY    68  48  49 S7        30.04
FRANKFORT +    MOCLDY    69  49  47 S6        30.04R
GREENWOOD *+   PTCLDY    70  43  37 S7        30.05R
INDIANAPOLIS   MOCLDY    71  44  37 S9        30.02R
-EAGLE CREEK   PTCLDY    70  45  40 S5        30.03R
MARION +       PTCLDY    67  47  48 S5        30.03R
MT COMFORT *+  PTCLDY    70  28  21 S5        30.04S
SHELBYVILLE    PTCLDY    70  50  49 S8        30.04R
ZIONSVILLE +   PTCLDY    70  43  37 S7        30.04R

$$

INZ033-034-041-042-049-050-058-059-040200-
EAST CENTRAL INDIANA

CITY           SKY/WX    TMP DP  RH WIND       PRES   REMARKS
MUNCIE         CLEAR     72  46  39 S8        30.04R

$$

INZ060-061-067>069-081>083-085>088-040200-
SOUTHWEST INDIANA

CITY           SKY/WX    TMP DP  RH WIND       PRES   REMARKS
EVANSVILLE     PTCLDY    72  50  45 S5        30.05R
HUNTINGBURG *+ PTCLDY    70  48  46 S6        30.05S
WASHINGTON +   PTCLDY    68  45  43 S7        30.03S

$$

INZ062-063-066-070>080-084-089>092-040200-
SOUTH CENTRAL AND SOUTHEAST INDIANA

CITY           SKY/WX    TMP DP  RH WIND       PRES   REMARKS
BEDFORD +      PTCLDY    72  45  37 S3        30.06R
BLOOMINGTON    MOCLDY    69  47  45 S6        30.04S
MADISON *+     PTCLDY    66  46  48 CALM      30.09R
NORTH VERNON + PTCLDY    68  46  45 SE5       30.07R
SEYMOUR +      MOCLDY    70  50  49 S6        30.05R

$$



USA.gov is the U.S. government's official web portal to all federal, state and local government web resources and services.